Regional Weather Roundup
Issued by NWS Nashville, TN

Home | Current Version | Previous Version | Text Only | Print | Product List | Glossary On
Versions: 1 2 3 4 5 6 7 8 9 10 11 12 13 14 15 16 17 18 19 20 21 22 23 24 25 26 27 28 29 30 31 32 33 34 35 36 37 38 39 40 41 42 43 44 45 46 47 48 49 50
000
ASUS44 KOHX 242310
RWROHX
MIDDLE TENNESSEE HOURLY WEATHER ROUNDUP
NATIONAL WEATHER SERVICE NASHVILLE TN
600 PM CDT SAT JUN 24 2017

NOTE: "FAIR" INDICATES FEW OR NO CLOUDS BELOW 12,000 FEET WITH
NO SIGNIFICANT WEATHER AND/OR OBSTRUCTIONS TO VISIBILITY.

* THESE REPORTS ARE NOT UNDER NWS QUALITY CONTROL AND MAY NOT
  REPORT WEATHER SUCH AS PRECIPITATION AND FOG.


TNZ005>011-023>034-057-059-062>066-078-080-250000
...NORTHERN MIDDLE TENNESSEE...

CITY           SKY/WX    TMP DP  RH WIND       PRES   REMARKS
CLARKSVILLE    MOSUNNY   78  57  48 N10       30.06S
CROSSVILLE     MOSUNNY   76  59  55 NW8       30.08R
GALLATIN       SUNNY     79  59  50 NW12      30.07S
NASHVILLE      PTSUNNY   79  60  52 NW14      30.06S
PORTLAND       MOSUNNY   77  59  53 N9        30.06R
SMYRNA         MOSUNNY   79  60  52 N15       30.06R
SPARTA         SUNNY     77  61  57 VRB6      30.05R
SPRINGFIELD    MOSUNNY   77  59  53 N6G13     30.05S
WEST NASHVILLE PTSUNNY   79  63  57 W8        30.04S
$$
TNZ056-058-060-061-075>077-079-093>097-250000
...SOUTHERN MIDDLE TENNESSEE...

CITY           SKY/WX    TMP DP  RH WIND       PRES   REMARKS
COLUMBIA       MOSUNNY   79  61  53 VRB5      30.04S
FAYETTEVILLE   MOSUNNY   81  64  57 N6        30.04S
MCMINNVILLE    SUNNY     79  63  57 NW8       30.05R
MURFREESBORO   MOSUNNY   80  58  46 N8        30.04R
PULASKI        SUNNY     81  64  57 N7        30.04S
SHELBYVILLE    SUNNY     79  61  53 NW14G21   30.04S
TULLAHOMA      SUNNY     79  61  53 NW8       30.06R
WINCHESTER     SUNNY     81  63  54 N7          N/A
$$


...KEY TO REMARKS...
VSB - VISIBILITY IN MILES
WCI - WIND CHILL INDEX
HX  - HEAT INDEX




USA.gov is the U.S. government's official web portal to all federal, state and local government web resources and services.